Find Starlink 34844

NORAD ID: 66486 Int'l Des: 2025-263 Owner: SPXS Country: US Constellation: starlink operational
LEOCIRCULAR

現在のビュー

3D地球を読み込み中...

About Starlink 34844

Starlink 34844 (NORAD 66486) is a starlink constellation satellite (v2 mini) launched Nov 15, 2025 by SPXS of US. It operates in LEO, CIRCULAR orbit with a mass of 575.00 kg.

次回通過

Passes for default location (London). Set your location on the main map for personalized predictions.

高度履歴

Loading altitude history...

軌道要素

1 66486U 25263B 26237.72183167 .00015115 00000-0 55759-3 0 9990
2 66486 43.0022 115.7963 0001216 268.9856 91.0856 15.27584226 44705
Epoch: Aug 25, 2026 • Age: 17 hours

現在のステータス

高度 491.9 km
遠地点 / 近地点 N/A
速度 7.62 km/s
衛星直下点 -33.94°S, 147.53°W
打ち上げ日 Nov 15, 2025
運用期間 0.7 years
タイプ internet

技術仕様

分類 Payload
質量 575.00 kg
乾燥質量 530.00 kg
総質量 575.00 kg
長さ 0.30 m
直径 4.10 m
スパン 29.00 m
形状 Box + pan
製造者 SPXS
バスタイプ Starlink V2MO
フェーズステータス In Orbit
所有者/国 SPXS/US

Most Searched